Date,TemperatureHighF,TemperatureAvgF,TemperatureLowF,DewpointHighF,DewpointAvgF,DewpointLowF,HumidityHigh,HumidityAvg,HumidityLow,PressureMaxIn,PressureMinIn,WindSpeedMaxMPH,WindSpeedAvgMPH,GustSpeedMaxMPH,PrecipitationSumIn
2013-1-1,78,73,66,60,52,48,77,48,38,30.14,29.99,10,4,23,0.00
2013-1-2,80,67,60,68,58,53,77,73,41,30.03,29.97,5,1,11,0.00
2013-1-3,80,73,66,70,65,59,77,75,60,30.07,29.97,8,2,16,0.00
2013-1-4,79,72,66,72,64,59,77,77,77,30.17,30.05,5,2,99,0.00
2013-1-5,75,69,66,67,62,59,77,77,77,30.19,30.10,6,2,112,0.17
2013-1-6,80,73,66,72,66,58,77,77,77,30.13,30.00,9,3,20,0.00
2013-1-7,75,71,68,67,64,60,77,77,77,30.10,30.01,7,1,13,0.21
2013-1-8,80,76,71,73,68,63,77,77,77,30.15,30.02,9,4,19,0.25
2013-1-9,80,76,74,72,69,67,77,77,77,30.22,30.10,9,6,19,0.00
2013-1-10,80,77,75,71,67,58,77,73,49,30.24,30.13,12,7,22,0.00
2013-1-11,79,76,74,71,68,66,77,77,77,30.20,30.10,10,6,19,0.00
2013-1-12,80,76,73,70,67,64,77,73,61,30.12,30.03,9,5,17,0.00
2013-1-13,80,76,73,70,65,55,77,69,50,30.07,30.01,9,6,18,0.00
2013-1-14,79,75,72,67,60,55,76,60,45,30.11,30.05,8,4,18,0.00
2013-1-15,79,75,72,68,63,58,77,66,50,30.08,29.99,9,5,17,0.00
2013-1-16,80,74,66,72,66,58,77,76,68,30.05,29.96,8,3,17,0.00
2013-1-17,80,71,61,73,63,54,77,77,73,30.02,29.91,10,3,23,0.42
2013-1-18,71,63,52,61,51,45,77,66,43,30.16,30.03,10,4,18,0.00
2013-1-19,73,70,67,65,60,55,77,73,56,30.16,30.04,7,2,13,0.35
2013-1-20,78,71,65,70,63,57,77,77,70,30.08,29.95,7,2,14,0.12
2013-1-21,78,71,66,70,63,59,77,77,77,30.01,29.90,8,2,17,0.26
2013-1-22,75,68,63,62,53,41,77,61,37,30.16,29.94,11,5,21,0.00
2013-1-23,74,68,61,58,47,38,77,51,28,30.24,30.14,6,3,15,0.00
2013-1-24,74,65,59,53,43,19,77,51,15,30.23,30.14,7,2,17,0.00
2013-1-25,61,60,59,53,52,50,77,75,71,30.19,30.16,1,0,4,0.00
2013-1-26,76,68,59,61,52,41,77,61,28,30.19,30.10,6,2,13,0.00
2013-1-27,78,70,62,63,54,43,77,59,31,30.23,30.14,7,3,16,0.00
2013-1-28,79,75,72,67,58,53,77,56,43,30.25,30.17,9,7,18,0.00
2013-1-29,78,74,71,70,67,64,77,77,71,30.17,30.07,10,5,20,0.04
2013-1-30,78,74,72,67,63,58,77,67,51,30.06,29.91,13,6,26,0.00
2013-1-31,72,67,63,65,57,44,77,71,46,30.06,29.89,8,3,19,0.00
2013-2-1,72,62,53,50,40,23,68,46,27,30.21,30.10,11,5,22,0.00
2013-2-2,73,63,55,53,37,20,77,41,24,30.20,30.06,7,2,15,0.00
2013-2-3,73,63,54,51,36,-7,77,46,4,30.11,30.00,8,2,16,0.00
2013-2-4,74,62,50,54,38,9,77,47,8,30.08,29.96,8,2,15,0.00
2013-2-5,76,67,55,64,53,43,77,64,32,30.02,29.94,5,2,14,0.00
2013-2-6,78,70,61,68,59,52,77,68,46,30.04,29.96,8,3,14,0.00
2013-2-7,78,73,71,66,62,60,77,69,56,30.01,29.97,7,4,15,0.00
2013-2-8,82,74,68,71,62,46,77,70,30,29.97,29.85,7,3,24,0.00
2013-2-9,78,69,65,68,61,58,77,76,67,30.07,29.95,5,1,13,0.00
2013-2-10,75,72,70,63,57,54,77,60,50,30.20,30.09,12,8,22,0.00
2013-2-11,78,74,70,62,57,53,69,56,45,30.16,30.05,10,6,20,0.00
2013-2-12,80,74,65,70,65,58,77,75,63,30.06,29.91,11,4,22,0.00
2013-2-13,81,76,69,74,68,62,77,77,77,29.95,29.83,11,4,23,0.00
2013-2-14,77,70,63,69,62,56,77,77,77,29.94,29.79,8,3,21,1.48
2013-2-15,72,67,63,65,59,56,77,77,77,29.96,29.88,5,1,13,0.41
2013-2-16,71,65,55,63,49,31,77,61,23,30.02,29.81,11,5,24,0.01
2013-2-17,57,51,44,37,-8,-100,52,20,1,30.24,30.02,10,5,23,0.00
2013-2-18,68,59,47,50,32,18,55,36,26,30.26,30.14,11,6,20,0.00
2013-2-19,77,72,63,66,54,41,77,57,36,30.14,30.02,10,5,22,0.04
2013-2-20,77,70,63,68,62,55,77,75,50,30.05,29.95,7,2,15,0.04
2013-2-21,80,74,66,71,66,58,77,77,75,30.03,29.93,8,3,16,0.00
2013-2-22,80,76,73,72,68,66,77,77,77,30.04,29.95,11,7,22,0.00
2013-2-23,82,76,70,74,68,62,77,77,77,29.99,29.85,11,6,24,0.85
2013-2-24,85,76,71,75,68,63,77,76,51,29.93,29.84,8,3,16,0.00
2013-2-25,82,76,69,74,68,62,77,77,77,29.85,29.75,10,4,21,0.01
2013-2-26,83,78,75,75,70,67,77,77,77,29.83,29.73,12,5,24,0.00
2013-2-27,77,70,62,69,62,55,77,76,57,29.91,29.80,4,2,16,0.65
2013-2-28,70,64,59,57,48,21,77,61,16,29.94,29.85,5,2,14,0.00
2013-3-1,65,62,58,56,44,35,77,54,35,29.92,29.84,5,2,13,0.00
2013-3-2,65,58,52,45,28,13,61,34,16,29.97,29.89,12,4,29,0.00
2013-3-3,60,54,49,44,31,21,77,44,23,30.08,29.90,9,4,22,0.00
2013-3-4,64,53,42,42,21,-19,66,35,3,30.15,30.05,7,3,16,0.00
2013-3-5,73,63,49,53,46,41,77,57,33,30.12,30.02,9,2,18,0.00
2013-3-6,77,65,54,66,39,-20,77,52,2,30.03,29.88,11,5,25,0.01
2013-3-7,69,59,48,57,36,21,77,46,16,30.11,30.00,6,3,15,0.00
2013-3-8,72,63,53,54,42,16,77,53,12,30.14,30.04,6,2,15,0.00
2013-3-9,74,65,56,56,45,39,77,50,31,30.13,30.04,7,3,18,0.00
2013-3-10,75,70,67,53,44,39,56,40,29,30.11,30.01,10,6,19,0.00
2013-3-11,77,72,69,55,51,44,56,47,32,30.03,29.90,11,7,22,0.00
2013-3-12,78,74,70,69,60,54,77,62,49,29.93,29.85,12,6,27,0.00
2013-3-13,73,65,57,63,48,23,77,58,17,30.06,29.91,11,4,20,0.00
2013-3-14,70,61,54,52,36,12,77,45,11,30.14,30.02,10,5,21,0.00
2013-3-15,70,62,53,49,40,34,70,46,29,30.18,30.09,8,3,16,0.00
2013-3-16,74,65,55,56,44,32,77,51,22,30.13,30.02,8,3,18,0.00
2013-3-17,75,68,60,58,52,45,77,57,36,30.09,29.97,10,3,18,0.00
2013-3-18,79,73,67,66,59,53,77,63,49,30.01,29.90,12,5,25,0.62
2013-3-19,78,72,68,70,65,61,77,77,77,29.95,29.77,7,2,20,0.00
2013-3-20,80,72,64,72,64,50,77,76,42,29.91,29.74,9,3,22,0.01
2013-3-21,74,66,59,59,46,24,77,54,15,29.88,29.76,7,3,17,0.00
2013-3-22,75,67,55,66,54,48,77,65,39,29.94,29.84,9,4,20,0.04
2013-3-23,84,77,72,76,69,64,77,77,77,29.93,29.74,11,4,23,0.00
2013-3-24,89,80,73,79,67,55,77,68,32,29.83,29.61,14,6,33,0.02
2013-3-25,78,73,65,67,44,-10,77,49,4,29.92,29.68,7,4,18,0.04
2013-3-26,66,60,54,27,10,-100,32,16,1,30.14,29.92,9,6,22,0.00
2013-3-27,66,56,46,42,28,11,61,35,14,30.18,30.10,7,4,18,0.00
2013-3-28,70,58,50,47,38,19,77,53,15,30.20,30.12,7,2,16,0.00
2013-3-29,74,65,56,41,36,29,57,36,20,30.22,30.14,8,3,16,0.00
2013-3-30,74,69,62,43,38,24,50,33,16,30.20,30.10,8,4,17,0.00
2013-3-31,79,73,65,66,55,42,77,54,39,30.13,29.98,10,6,22,0.00
2013-4-1,85,76,72,73,63,46,77,66,25,29.99,29.91,9,4,21,0.00
2013-4-2,80,73,66,68,62,55,77,69,43,30.01,29.93,7,3,15,0.00
2013-4-3,82,77,73,73,69,65,77,76,62,30.00,29.93,9,5,18,0.00
2013-4-4,83,76,69,75,68,61,77,77,77,29.99,29.85,11,6,28,0.66
2013-4-5,74,69,66,66,61,59,77,77,77,29.92,29.76,9,4,20,0.42
2013-4-6,77,69,59,69,60,52,77,74,56,30.02,29.85,9,4,19,0.00
2013-4-7,77,74,71,65,58,49,77,60,41,30.08,29.96,9,6,19,0.00
2013-4-8,79,73,63,66,55,47,77,54,33,30.07,29.98,7,3,13,0.00
2013-4-9,80,76,72,69,64,55,77,69,43,30.09,29.99,10,6,19,0.19
2013-4-10,82,77,74,74,69,66,77,77,77,30.04,29.94,9,6,20,0.00
2013-4-11,82,78,76,74,70,68,77,77,77,29.96,29.84,12,8,23,0.00
2013-4-12,85,80,76,77,72,69,77,77,77,29.88,29.81,12,7,24,0.09
2013-4-13,84,77,71,76,69,63,77,77,77,29.91,29.81,9,2,20,0.91
2013-4-14,84,79,72,76,71,64,77,77,77,29.91,29.84,11,5,20,0.00
2013-4-15,86,77,70,78,70,63,77,77,77,29.99,29.86,10,3,21,0.63
2013-4-16,83,78,72,75,70,64,77,77,77,30.05,29.96,9,3,17,0.02
2013-4-17,77,76,75,69,68,67,77,77,77,30.05,29.99,5,3,12,0.00
2013-4-18,84,80,76,76,70,65,77,73,59,30.00,29.91,9,6,19,0.00
2013-4-19,84,81,76,76,73,69,77,77,77,29.99,29.90,12,8,24,0.11
2013-4-20,86,78,73,78,70,65,77,77,77,30.01,29.90,9,4,20,0.30
2013-4-21,82,77,72,74,69,64,77,77,77,30.03,29.92,11,4,19,0.00
2013-4-22,83,75,72,75,68,64,77,77,77,29.98,29.87,9,2,18,0.11
2013-4-23,82,75,69,72,61,52,77,63,41,30.02,29.89,9,4,22,0.00
2013-4-24,82,77,73,59,53,49,60,44,34,30.07,29.97,8,5,16,0.00
2013-4-25,80,76,73,56,50,46,53,41,31,30.14,30.01,7,4,15,0.00
2013-4-26,81,76,71,59,54,50,56,47,36,30.16,30.05,7,4,17,0.00
2013-4-27,80,77,74,59,53,48,56,44,33,30.14,30.02,10,6,20,0.00
2013-4-28,82,77,74,55,52,47,51,41,31,30.05,29.93,9,7,18,0.00
2013-4-29,82,78,75,70,60,51,77,54,40,29.97,29.88,10,6,20,0.00
2013-4-30,83,77,72,73,69,64,77,76,56,29.93,29.86,9,3,19,0.03
2013-5-1,83,75,71,75,68,63,77,77,77,29.94,29.86,7,2,17,0.17
2013-5-2,78,73,68,70,66,61,77,77,77,29.88,29.74,13,5,24,2.62
2013-5-3,85,74,69,74,66,61,77,76,53,29.75,29.61,11,3,22,1.27
2013-5-4,86,76,68,74,64,53,77,69,34,29.73,29.62,7,3,17,0.01
2013-5-5,80,74,66,71,54,20,77,57,11,29.86,29.68,6,4,16,0.00
2013-5-6,82,72,59,67,53,42,77,55,24,29.94,29.85,6,2,15,0.00
2013-5-7,83,72,62,64,55,39,77,58,21,29.99,29.91,8,3,18,0.00
2013-5-8,83,74,63,68,54,32,77,55,16,30.07,29.97,7,2,13,0.00
2013-5-9,84,77,67,72,63,54,77,64,41,30.07,29.99,8,3,18,0.00
2013-5-10,86,81,75,76,70,60,77,71,45,30.07,29.96,10,4,20,0.00
2013-5-11,85,79,74,77,72,66,77,77,77,30.01,29.91,11,4,24,0.12
2013-5-12,86,78,72,78,70,65,77,77,67,29.99,29.87,9,3,25,0.48
2013-5-13,86,78,72,77,67,49,77,72,28,30.02,29.92,6,2,16,0.01
2013-5-14,80,76,74,69,50,39,77,43,24,30.11,30.00,7,4,17,0.00
2013-5-15,80,76,73,55,48,41,49,37,25,30.13,30.03,8,6,18,0.00
2013-5-16,82,77,72,59,49,44,55,38,29,30.05,29.98,7,4,16,0.00
2013-5-17,84,78,72,74,67,52,77,68,44,30.02,29.94,9,4,16,0.00
2013-5-18,84,79,74,76,72,66,77,77,77,30.04,29.97,9,4,20,0.00
2013-5-19,84,80,76,72,65,56,77,62,42,30.03,29.94,7,4,15,0.00
2013-5-20,80,76,70,72,68,63,77,77,71,30.01,29.91,8,3,23,2.15
2013-5-21,81,76,70,73,68,62,77,77,77,29.98,29.87,10,4,20,0.09
2013-5-22,83,77,72,75,70,65,77,77,77,29.91,29.83,8,3,18,0.10
2013-5-23,91,81,75,78,68,38,77,68,16,29.94,29.84,7,3,17,0.00
2013-5-24,88,82,76,80,73,55,77,74,32,29.99,29.88,6,3,14,0.00
2013-5-25,84,79,73,73,62,49,77,59,30,30.09,29.97,8,4,18,0.07
2013-5-26,83,79,75,65,54,38,68,43,25,30.11,30.03,9,5,20,0.00
2013-5-27,82,79,75,71,64,51,77,62,41,30.09,30.00,11,7,24,0.06
2013-5-28,82,78,74,74,70,67,77,77,77,30.05,29.98,13,8,24,0.47
2013-5-29,81,77,71,74,69,64,77,77,77,30.03,29.96,13,7,31,4.16
2013-5-30,82,78,72,74,70,65,77,77,77,30.01,29.94,15,10,29,0.50
2013-5-31,83,79,75,75,71,67,77,77,77,30.00,29.94,12,8,23,0.31
2013-6-1,83,78,75,75,70,67,77,77,77,29.96,29.90,8,3,16,0.20
2013-6-2,87,79,72,79,71,65,77,77,77,29.94,29.86,9,2,19,0.00
2013-6-3,86,79,74,78,71,66,77,77,77,29.97,29.85,8,2,16,0.13
2013-6-4,84,79,74,76,71,66,77,77,77,29.99,29.89,6,2,11,0.02
2013-6-5,83,81,80,75,73,72,77,77,77,29.95,29.84,9,4,15,0.04
2013-6-6,86,80,76,78,72,68,77,77,77,29.84,29.71,15,7,30,0.79
2013-6-7,90,79,75,82,71,67,77,77,77,29.88,29.77,8,2,17,0.03
2013-6-8,85,79,75,77,71,67,77,77,77,30.04,29.90,8,2,17,0.41
2013-6-9,86,83,80,78,75,72,77,77,77,30.05,29.97,10,6,18,0.00
2013-6-10,87,83,80,79,75,72,77,77,77,30.02,29.94,9,5,18,0.00
2013-6-11,86,83,80,78,75,73,77,77,77,30.02,29.94,9,4,18,0.00
2013-6-12,86,81,78,78,73,70,77,77,77,30.01,29.95,7,1,12,0.00
2013-6-13,88,80,75,80,72,68,77,77,77,29.98,29.87,7,2,15,0.04
2013-6-14,92,81,75,80,71,56,77,73,31,29.90,29.81,9,2,18,0.27
2013-6-15,89,82,76,81,74,68,77,77,77,29.99,29.85,7,2,13,0.00
2013-6-16,88,83,77,80,75,69,77,77,77,30.02,29.95,7,3,16,0.00
2013-6-17,89,84,80,80,76,72,77,77,77,30.01,29.94,8,4,18,0.00
2013-6-18,89,84,80,80,75,71,77,73,58,30.00,29.92,9,4,18,0.00
2013-6-19,89,83,79,80,75,71,77,77,77,29.98,29.92,9,3,18,0.25
2013-6-20,89,82,75,80,73,67,77,73,53,30.02,29.95,8,3,18,0.01
2013-6-21,89,84,79,78,71,64,77,67,46,30.05,29.96,8,4,17,0.00
2013-6-22,85,82,80,75,72,67,77,73,56,30.03,29.97,5,3,13,0.00
2013-6-23,88,84,79,76,69,62,77,63,43,30.06,29.98,10,6,18,0.00
2013-6-24,88,84,81,70,66,61,68,54,43,30.10,30.01,9,6,18,0.00
2013-6-25,88,83,79,78,71,63,77,68,50,30.06,29.98,10,5,19,0.00
2013-6-26,89,84,79,75,69,62,77,63,43,30.02,29.94,9,5,20,0.00
2013-6-27,87,82,76,78,73,67,77,75,57,29.99,29.89,7,2,14,0.33
2013-6-28,89,81,75,80,73,65,77,76,46,29.93,29.80,10,3,25,0.15
2013-6-29,85,77,74,77,69,67,77,77,77,29.86,29.80,9,1,20,0.01
2013-7-7,87,83,81,79,76,73,77,77,77,30.04,29.96,10,6,18,0.00
2013-7-8,87,83,80,78,74,69,77,74,58,30.08,30.00,8,4,16,0.00
2013-7-9,86,81,75,78,73,68,77,77,73,30.07,29.98,9,2,18,0.09
2013-7-10,84,79,72,76,71,64,77,77,77,30.02,29.94,7,3,16,0.46
2013-7-11,88,83,77,80,75,69,77,77,77,29.98,29.88,9,3,18,0.00
2013-7-12,89,80,74,80,72,67,77,77,61,29.90,29.84,9,2,21,0.04
2013-7-13,86,77,73,78,69,65,77,77,77,29.97,29.85,7,1,17,0.81
2013-7-14,87,76,73,79,65,-100,77,74,77,30.02,29.92,10,3,20,0.12
2013-7-15,86,80,73,78,72,65,77,77,77,30.02,29.94,10,3,21,0.99
2013-7-16,84,78,74,76,71,66,77,77,77,30.08,29.99,13,6,26,0.18
2013-7-17,80,79,75,73,71,67,77,77,77,30.08,29.98,7,4,15,0.07
2013-7-18,84,77,73,76,69,66,77,77,77,30.06,29.99,11,2,23,0.50
2013-7-19,86,81,74,78,73,67,77,77,77,30.06,29.98,9,3,19,0.00
2013-7-20,86,82,77,78,74,69,77,77,77,30.05,29.97,11,4,22,0.00
2013-7-21,87,81,74,79,73,67,77,77,77,30.09,29.98,7,2,16,0.64
2013-7-22,88,83,76,80,75,68,77,77,77,30.08,30.00,8,3,17,0.00
2013-7-23,89,84,78,81,76,70,77,77,77,30.05,29.90,9,3,19,0.00
2013-7-24,92,84,78,80,67,43,77,60,20,29.95,29.84,9,3,17,0.00
2013-7-25,92,84,76,83,73,63,77,71,39,29.94,29.84,7,3,18,0.00
2013-7-26,90,82,78,81,74,69,77,76,50,29.95,29.87,8,3,18,0.01
2013-7-27,88,80,76,80,72,68,77,77,77,29.93,29.86,9,1,19,0.03
2013-7-28,84,80,74,76,72,66,77,77,77,30.00,29.88,8,1,22,1.18
2013-7-29,88,82,76,80,75,69,77,77,77,30.07,29.95,8,3,16,0.00
2013-7-30,88,84,76,80,76,69,77,77,77,30.09,30.01,9,4,15,0.00
2013-7-31,89,85,81,81,77,73,77,77,77,30.05,29.94,10,5,17,0.00
2013-8-1,88,84,81,78,74,65,77,71,49,29.99,29.88,11,5,20,0.00
2013-8-2,88,81,76,78,72,64,77,75,44,29.99,29.85,6,2,13,0.05
2013-8-3,86,78,72,78,70,64,77,77,77,30.06,29.96,15,1,43,0.51
2013-8-4,90,80,75,82,72,67,77,77,77,30.04,29.91,14,2,30,0.21
2013-8-5,90,81,77,82,73,69,77,77,77,29.97,29.88,8,2,20,0.01
2013-8-6,89,82,76,81,74,69,77,77,77,29.91,29.82,7,2,14,0.00
2013-8-7,88,84,78,80,76,70,77,77,77,29.92,29.83,11,4,22,0.00
2013-8-8,89,85,82,81,77,73,77,77,66,29.95,29.86,9,6,19,0.00
2013-8-9,88,83,81,77,72,63,77,71,48,30.00,29.88,9,5,20,0.05
2013-8-10,90,85,81,78,72,64,77,67,44,30.05,29.97,8,6,18,0.00
2013-8-11,84,83,82,75,75,74,77,77,73,30.04,30.02,6,4,13,0.00
2013-8-12,89,84,80,74,68,61,77,58,42,30.04,29.95,10,4,16,0.00
2013-8-13,89,85,82,77,69,60,77,61,38,29.97,29.89,9,4,17,0.00
2013-8-14,89,84,78,80,72,64,77,68,47,29.95,29.86,9,4,19,0.00
2013-8-15,87,81,75,79,73,67,77,77,69,29.96,29.90,9,3,21,1.74
2013-8-16,89,84,79,81,76,71,77,77,77,29.99,29.91,7,3,15,0.00
2013-8-17,89,85,83,81,77,75,77,77,77,30.01,29.93,10,5,17,0.00
2013-8-18,88,85,83,80,77,75,77,77,77,30.01,29.93,11,6,18,0.01
2013-8-19,90,85,82,81,77,73,77,76,63,30.00,29.90,10,5,18,0.00
2013-8-20,89,85,81,78,73,66,77,69,48,29.99,29.91,10,5,18,0.05
2013-8-21,87,84,79,79,76,71,77,77,77,30.01,29.93,11,6,22,0.04
2013-8-22,88,85,78,80,77,70,77,77,77,30.00,29.89,10,5,19,0.12
2013-8-23,89,84,79,80,76,72,77,77,77,29.95,29.87,8,3,15,0.00
2013-8-24,89,85,80,81,77,72,77,77,77,30.03,29.91,8,3,14,0.00
2013-8-25,86,82,77,78,74,69,77,77,77,30.08,29.96,6,2,14,0.00
2013-8-26,88,81,73,79,73,65,77,76,64,30.05,29.94,9,3,18,0.61
2013-8-27,84,78,75,76,71,67,77,77,77,29.98,29.90,5,1,12,0.05
2013-8-28,87,82,77,79,74,69,77,77,77,29.97,29.89,10,3,22,0.08
2013-8-29,88,82,75,80,74,67,77,77,77,29.96,29.86,7,3,14,0.00
2013-8-30,90,84,78,80,73,56,77,71,32,29.93,29.83,9,3,18,0.00
2013-8-31,83,80,78,75,72,70,77,77,77,29.88,29.84,3,1,9,0.00
2013-9-1,88,79,75,80,71,67,77,77,77,29.93,29.86,5,1,13,0.00
2013-9-2,90,79,73,82,71,66,77,77,77,29.96,29.87,11,2,33,0.78
2013-9-3,88,80,73,80,72,-100,77,76,77,29.95,29.86,7,2,12,0.01
2013-9-4,87,84,80,79,76,72,77,77,77,29.99,29.88,7,2,13,0.00
2013-9-5,89,84,79,81,76,71,77,77,77,30.00,29.93,7,3,13,0.14
2013-9-6,89,85,80,81,77,72,77,77,77,29.96,29.86,7,3,13,0.00
2013-9-7,87,79,74,79,71,66,77,77,77,29.91,29.83,7,1,22,0.03
2013-9-8,88,80,74,80,72,66,77,77,77,29.89,29.79,5,1,13,0.46
2013-9-9,87,81,74,79,73,66,77,77,77,29.93,29.82,7,3,16,0.27
2013-9-10,87,83,79,79,75,71,77,77,77,29.97,29.88,11,5,19,0.03
2013-9-11,84,80,74,76,72,66,77,77,77,29.99,29.90,12,3,26,0.43
2013-9-12,85,80,75,77,72,67,77,77,77,29.93,29.82,4,1,12,1.18
2013-9-13,86,81,75,78,73,67,77,77,77,29.83,29.74,6,2,13,0.11
2013-9-14,89,83,76,81,74,68,77,75,52,29.90,29.75,8,3,13,0.00
2013-9-15,86,82,79,78,74,71,77,77,77,29.97,29.85,10,4,21,0.00
2013-9-16,86,81,78,78,73,70,77,77,77,29.97,29.89,9,5,21,0.20
2013-9-17,81,79,74,73,71,66,77,77,77,29.97,29.85,9,3,18,0.71
2013-9-18,85,79,75,77,71,67,77,77,77,29.94,29.85,6,2,17,0.72
2013-9-19,87,81,75,79,73,67,77,77,77,29.94,29.85,10,4,18,0.04
2013-9-20,86,82,78,75,68,56,77,64,36,29.93,29.83,6,3,16,0.00
2013-9-21,86,81,76,73,64,58,77,56,40,29.84,29.71,6,2,12,0.00
2013-9-22,87,82,77,79,74,70,77,77,72,29.80,29.69,8,2,18,0.14
2013-9-23,86,81,78,78,73,70,77,77,77,29.91,29.78,8,1,19,0.11
2013-9-24,90,80,75,82,72,68,77,77,77,29.90,29.80,7,2,19,1.04
2013-9-25,88,80,74,79,71,60,77,73,41,29.82,29.72,8,3,21,0.30
2013-9-26,90,80,76,81,73,69,77,77,77,29.79,29.71,10,3,28,0.24
2013-9-27,87,80,74,78,71,61,77,74,42,29.85,29.74,7,2,17,0.02
2013-9-28,86,80,74,78,72,66,77,77,77,29.89,29.80,11,3,20,0.03
2013-9-29,86,81,75,74,64,56,77,57,36,29.90,29.81,7,3,14,0.00
2013-9-30,86,81,74,75,63,57,77,56,38,29.93,29.83,6,3,14,0.00
2013-10-1,86,83,80,65,62,58,56,50,40,29.96,29.88,8,5,15,0.00
2013-10-2,86,82,80,69,63,60,67,51,41,29.97,29.90,8,5,17,0.00
2013-10-3,86,82,80,69,64,58,69,54,40,29.99,29.88,7,4,16,0.00
2013-10-4,86,83,79,65,61,58,60,49,39,29.99,29.91,5,3,13,0.00
2013-10-5,87,81,73,77,66,58,77,62,41,29.95,29.86,7,2,14,0.00
2013-10-6,87,82,77,76,64,51,77,56,30,29.89,29.80,6,2,14,0.08
2013-10-7,92,79,73,78,67,50,77,68,24,29.82,29.73,16,2,35,0.24
2013-10-8,89,81,76,80,72,62,77,75,42,29.85,29.77,7,2,17,0.00
2013-10-9,84,78,73,76,70,66,77,77,77,29.91,29.83,9,4,18,0.00
2013-10-10,86,80,72,78,69,63,77,71,48,29.93,29.87,8,3,20,0.00
2013-10-11,85,78,70,76,59,51,77,55,31,29.94,29.87,6,2,15,0.00
2013-10-12,85,78,69,74,61,52,77,58,33,29.95,29.88,6,2,13,0.00
2013-10-13,85,78,72,72,57,39,77,52,20,29.97,29.90,9,2,19,0.00
2013-10-14,85,78,70,73,60,50,77,56,30,29.93,29.83,6,2,14,0.00
2013-10-15,85,78,72,76,67,57,77,69,48,29.88,29.80,7,2,12,0.00
2013-10-16,79,75,72,66,62,57,77,65,48,29.85,29.82,1,0,4,0.00
2013-10-17,86,80,72,76,64,54,77,61,36,29.90,29.82,6,2,13,0.00
2013-10-18,86,81,73,78,67,60,77,64,44,29.91,29.83,7,3,17,0.00
2013-10-19,87,82,78,71,62,53,77,51,32,29.89,29.81,8,4,18,0.00
2013-10-20,87,81,77,79,73,65,77,76,60,29.90,29.80,7,2,14,0.00
2013-10-21,88,82,76,80,75,69,77,77,77,29.93,29.83,8,3,16,0.00
2013-10-22,88,83,78,78,72,64,77,71,45,29.88,29.76,9,3,20,0.00
2013-10-23,87,80,76,78,70,64,77,72,51,29.88,29.74,9,3,17,0.00
2013-10-24,81,77,72,67,53,42,77,47,28,30.02,29.86,8,4,19,0.00
2013-10-25,83,77,68,60,48,39,74,39,21,30.08,29.99,9,4,21,0.00
2013-10-26,82,77,70,51,44,36,50,32,19,30.07,29.98,6,2,15,0.00
2013-10-27,83,75,66,55,48,40,61,40,23,30.02,29.95,6,3,13,0.00
2013-10-28,83,78,71,56,47,37,60,34,19,30.07,29.97,7,3,15,0.00
2013-10-29,84,79,70,67,53,44,77,42,27,30.10,30.01,10,5,20,0.00
2013-10-30,83,79,77,57,51,46,47,37,28,30.11,30.01,10,7,18,0.00
2013-10-31,84,80,78,66,58,51,63,47,34,30.04,29.93,10,6,17,0.02
2013-11-1,85,81,76,68,61,59,75,51,42,29.93,29.82,9,5,19,0.00
2013-11-2,88,79,70,76,62,40,77,62,19,29.85,29.73,7,3,16,0.00
2013-11-3,80,75,69,63,51,40,77,47,26,29.95,29.82,12,7,24,0.00
2013-11-4,81,77,72,59,47,30,64,35,17,30.00,29.93,12,8,26,0.05
2013-11-5,82,79,77,60,55,50,53,44,33,30.02,29.94,12,10,23,0.00
2013-11-6,83,79,73,66,55,49,77,44,31,29.99,29.93,11,6,21,0.00
2013-11-7,84,76,70,76,66,52,77,71,33,29.94,29.85,7,3,16,0.00
2013-11-8,84,77,72,74,66,53,77,71,35,29.97,29.86,11,6,25,0.25
2013-11-9,78,77,74,70,69,66,77,77,77,30.05,29.94,12,8,25,0.12
2013-11-10,83,79,76,75,71,64,77,77,64,30.05,29.98,9,5,18,0.01
2013-11-11,82,78,76,71,60,46,77,55,33,30.05,29.98,9,4,17,0.00
2013-11-12,83,78,72,70,54,44,77,46,26,30.01,29.90,6,2,13,0.00
2013-11-13,77,72,69,64,49,33,77,46,26,30.14,29.92,11,8,27,0.06
2013-11-14,77,73,70,44,37,29,34,27,19,30.17,30.06,13,9,24,0.00
2013-11-15,80,77,74,56,50,42,46,40,32,30.08,29.96,11,8,20,0.00
2013-11-16,80,78,74,70,62,48,77,62,35,30.02,29.95,9,5,19,0.14
2013-11-17,83,80,78,71,64,54,77,59,39,30.00,29.93,10,5,18,0.00
2013-11-18,84,78,72,76,69,62,77,76,57,29.94,29.83,4,1,10,0.01
2013-11-19,84,75,72,76,67,64,77,77,77,29.87,29.78,5,1,12,1.67
2013-11-20,83,76,70,75,69,62,77,77,77,29.99,29.85,6,2,14,0.02
2013-11-21,80,77,73,72,69,65,77,77,77,30.07,29.97,11,6,20,0.78
2013-11-22,80,78,75,72,70,67,77,77,77,30.09,29.99,11,7,20,0.00
2013-11-23,82,77,71,74,69,63,77,77,77,30.01,29.91,8,4,15,0.00
2013-11-24,80,73,68,72,65,61,77,76,63,30.06,29.91,12,5,25,0.58
2013-11-25,75,73,72,67,62,54,77,70,52,30.13,29.97,14,11,27,0.00
2013-11-26,81,78,73,73,70,66,77,77,77,29.97,29.75,14,7,27,0.13
2013-11-27,78,70,56,70,59,41,77,69,28,30.05,29.71,9,5,25,0.54
2013-11-28,73,63,48,61,42,25,77,51,18,30.17,30.04,10,5,18,0.00
2013-11-29,77,71,60,63,45,32,77,43,22,30.19,30.11,9,5,19,0.00
2013-11-30,78,71,62,69,56,46,77,61,37,30.14,30.02,10,4,21,0.05
2013-12-1,80,70,64,72,63,52,77,77,53,30.02,29.85,8,3,16,1.07
2013-12-2,73,67,61,65,60,54,77,77,77,29.85,29.75,5,2,15,0.01
2013-12-3,77,70,60,68,56,36,77,66,23,29.93,29.83,4,1,12,0.00
2013-12-4,80,73,65,72,64,57,77,75,61,30.02,29.91,6,2,14,0.00
2013-12-5,81,76,67,74,68,60,77,77,72,30.09,30.00,8,4,19,0.00
2013-12-6,82,78,75,70,58,48,77,53,32,30.11,30.02,10,5,21,0.00
2013-12-7,81,75,68,74,66,51,77,74,41,30.15,30.07,7,2,15,0.04
2013-12-8,82,78,75,74,65,53,77,64,42,30.14,30.05,11,5,20,0.00
2013-12-9,82,78,76,62,51,39,61,40,22,30.13,30.03,9,5,18,0.00
2013-12-10,83,78,73,67,57,45,77,51,27,30.09,30.01,7,3,15,0.00
2013-12-11,83,76,70,75,68,62,77,77,68,30.13,30.05,5,1,12,0.00
2013-12-12,78,72,70,70,62,44,77,72,38,30.15,30.06,13,5,24,0.01
2013-12-13,78,74,70,62,48,41,64,42,30,30.13,30.01,11,7,23,0.00
2013-12-14,81,78,75,70,63,56,77,62,44,30.04,29.91,10,6,23,0.03
2013-12-15,82,76,71,74,68,63,77,77,77,29.99,29.85,10,3,21,0.00
2013-12-16,73,67,60,66,60,53,77,77,77,30.08,29.96,7,4,15,0.00
2013-12-17,77,67,59,68,49,35,77,58,22,30.11,30.03,6,3,15,0.00
2013-12-18,75,66,60,61,48,27,77,58,18,30.16,30.07,9,4,18,0.00
2013-12-19,77,70,58,62,46,34,77,47,21,30.17,30.08,8,4,16,0.00
2013-12-20,80,77,74,60,54,48,55,45,36,30.12,30.03,11,6,19,0.00
2013-12-21,82,78,77,70,63,58,77,60,45,30.08,29.99,10,7,22,0.00
2013-12-22,82,79,77,70,66,58,77,66,45,30.09,30.01,12,7,24,0.00
2013-12-23,82,78,72,72,66,59,77,67,47,30.11,30.04,10,6,21,0.00
2013-12-24,82,72,68,74,65,61,77,77,77,30.10,30.02,11,4,22,0.00
2013-12-25,77,73,71,65,59,52,77,62,46,30.10,30.03,10,6,20,0.00
2013-12-26,78,76,73,63,60,57,69,60,49,30.10,29.99,7,4,16,0.00
2013-12-27,80,76,74,67,59,54,77,56,41,30.12,30.02,8,5,18,0.01
2013-12-28,79,76,73,69,62,56,77,60,45,30.11,29.94,13,8,23,0.07
2013-12-29,81,78,75,74,70,67,77,77,77,29.96,29.85,10,5,21,0.00
2013-12-30,78,72,69,70,65,61,77,77,77,30.07,29.91,5,2,12,0.02
2013-12-31,78,73,68,70,57,48,77,60,39,30.16,30.03,9,5,19,0.00
2014-1-1,80,77,73,71,66,53,77,71,48,30.12,29.95,11,6,19,0.00
2014-1-2,85,78,72,73,59,33,77,59,16,29.95,29.79,8,4,20,0.00